Weather in Bida

Nigeria     9°05′13″N   5°59′34″E
temp.,
°C
wind,
m/s
gust,
m/s
humid.,
%
clouds,
%
prec.,
mm/h
press.,
hPa
HPBL,
m
23 january, sat
sat2301:00+25n23170 0.0 101168
04:00+24nne361869 0.0 1010223
07:00+20nnw122262 0.0 101223
10:00+30nne12130 0.0 1012570
13:00+40ene01835 0.0 10091287
16:00+39ese018100 0.0 10062301
19:00+31ese0113100 0.0 100724
22:00+29nw22140 0.0 101024
24 january, sun
sun2401:00+26nne37160 0.0 1010133
04:00+23nne221741 0.0 101035
07:00+22nnw121888 0.0 101023
10:00+30e231230 0.0 1012593
13:00+36sse34100 0.0 10091376
16:00+40ese12953 0.0 10052476
19:00+32nnw221350 0.0 100624
22:00+29nw111612 0.0 100924
25 january, mon
mon2501:00+26nne23170 0.0 100972
04:00+24nw232094 0.0 100933
07:00+20wnw11180 0.0 101123
10:00+30w12110 0.0 1013527
13:00+38sse12120 0.0 10091399
16:00+40nne01130 0.0 10062770
19:00+33n231716 0.0 100735
22:00+31nw22170 0.0 101024
26 january, tue
tue2601:00+29nne49180 0.0 1010252
04:00+24wnw12205 0.0 100923
07:00+22nnw222064 0.0 101123
10:00+32ene121196 0.0 1012688
13:00+40ese121048 0.0 10091340
16:00+40e1291 0.0 10062902
19:00+33s22148 0.0 100724
22:00+30wnw11160 0.0 101024
27 january, wed
wed2701:00+27ne24180 0.0 100998
04:00+24nw2219100 0.0 100926
07:00+21nnw232059 0.0 101144
10:00+31w111361 0.0 1011542
13:00+38sse231043 0.0 10091328
16:00+40ese121473 0.0 10052696
19:00+33wnw12187 0.0 100726
22:00+30wsw11210 0.0 100924